Data for 01/23/2018

Time Sea-Level Adjusted Pressure Absolute Pressure Temperature Relative Humidity Dew Point   
(mb) (inHg) (mb) (inHg) (C) (F) (%) (C) (F)
00:05 1022 30.18 851 25.13 -5.8 21.5 77 -9.2 15.5
00:10 1022 30.18 851 25.13 -5.9 21.3 78 -9.2 15.4
00:15 1022 30.18 851 25.13 -6 21.3 78 -9.2 15.4
00:20 1022 30.18 851 25.13 -5.9 21.5 77 -9.2 15.4
00:25 1022 30.18 851 25.13 -5.6 22 76 -9.2 15.5
00:30 1022 30.18 851 25.13 -5.5 22 75 -9.2 15.4
00:35 1022 30.18 851 25.13 -5.6 21.9 75 -9.4 15
00:40 1022 30.18 851 25.13 -5.4 22.3 70 -10 14
00:45 1022 30.18 851 25.13 -5.1 22.9 70 -9.8 14.4
00:50 1022 30.18 851 25.13 -5 23.1 64 -10.8 12.6
00:55 1022 30.18 851 25.13 -4.8 23.4 61 -11.2 11.9
01:00 1022 30.18 851 25.13 -4.7 23.5 62 -10.9 12.3
01:05 1022 30.18 851 25.13 -4.8 23.4 62 -11 12.3
01:10 1022 30.18 851 25.13 -4.8 23.4 63 -10.7 12.7
01:15 1022 30.18 851 25.13 -4.8 23.4 65 -10.4 13.2
01:20 1022 30.18 851 25.13 -5 23 68 -10.1 13.8
01:25 1022 30.18 851 25.13 -5.1 22.8 66 -10.4 13.3
01:30 1022 30.18 851 25.13 -4.8 23.3 65 -10.4 13.3
01:35 1022 30.18 851 25.13 -4.6 23.7 64 -10.4 13.3
01:40 1022 30.18 851 25.13 -4.5 23.9 63 -10.6 12.9
01:45 1022 30.18 851 25.13 -4.4 24.1 64 -10.3 13.5
01:50 1022 30.18 851 25.13 -4.3 24.2 61 -10.7 12.7
01:55 1022 30.18 851 25.13 -3.9 24.9 60 -10.7 12.8
02:00 1022 30.18 851 25.13 -3.5 25.6 59 -10.5 13.1
02:05 1022 30.18 851 25.13 -3.5 25.6 59 -10.5 13.1
02:10 1022 30.18 851 25.13 -3.5 25.7 57 -10.9 12.3
02:15 1022 30.18 851 25.13 -3.4 25.8 57 -10.8 12.6
02:20 1022 30.18 851 25.13 -3.4 25.8 57 -10.8 12.6
02:25 1022 30.18 851 25.13 -3.5 25.8 57 -10.8 12.6
02:30 1022 30.18 851 25.13 -3.5 25.7 57 -10.8 12.5
02:35 1022 30.18 851 25.13 -3.5 25.8 56 -11 12.1
02:40 1022 30.18 851 25.13 -3.3 26 57 -10.7 12.8
02:45 1022 30.18 851 25.13 -3.4 25.8 57 -10.7 12.7
02:50 1022 30.18 852 25.16 -3.4 25.8 57 -10.9 12.4
02:55 1022 30.18 852 25.16 -3.4 25.9 59 -10.4 13.3
03:00 1022 30.18 852 25.16 -3.8 25.1 60 -10.6 13
03:05 1022 30.18 852 25.16 -3.9 25.1 60 -10.6 13
03:10 1022 30.18 852 25.16 -3.9 25 60 -10.4 13.2
03:15 1022 30.18 852 25.16 -3.6 25.5 58 -10.7 12.8
03:20 1023 30.21 852 25.16 -3.4 25.8 59 -10.4 13.3
03:25 1023 30.21 852 25.16 -3.5 25.7 60 -10.2 13.6
03:30 1023 30.21 852 25.16 -3.7 25.4 60 -10.4 13.2
03:35 1023 30.21 852 25.16 -3.7 25.3 59 -10.5 13.1
03:40 1023 30.21 852 25.16 -3.7 25.3 61 -10.3 13.5
03:45 1023 30.21 852 25.16 -3.7 25.3 60 -10.3 13.4
03:50 1023 30.21 852 25.16 -3.8 25.2 61 -10.2 13.6
03:55 1023 30.21 852 25.16 -3.9 25 63 -9.9 14.1
04:00 1023 30.21 852 25.16 -4 24.8 64 -9.9 14.3
04:05 1023 30.21 852 25.16 -4.2 24.5 63 -10.1 13.8
04:10 1023 30.21 852 25.16 -4.2 24.4 63 -10.2 13.6
04:15 1023 30.21 852 25.16 -4.2 24.4 63 -10.3 13.4
04:20 1023 30.21 852 25.16 -4.1 24.6 62 -10.3 13.5
04:25 1023 30.21 852 25.16 -4 24.7 63 -10.1 13.9
04:30 1023 30.21 852 25.16 -4.1 24.7 64 -9.9 14.2
04:35 1023 30.21 852 25.16 -4.1 24.6 65 -9.8 14.3
04:40 1023 30.21 852 25.16 -4.2 24.4 65 -9.9 14.1
04:45 1023 30.21 852 25.16 -4.3 24.3 65 -10 14
04:50 1023 30.21 853 25.19 -4.2 24.4 64 -10 13.9
04:55 1023 30.21 853 25.19 -4.2 24.4 64 -10 14
05:00 1023 30.21 853 25.19 -4.2 24.4 64 -10 13.9
05:05 1023 30.21 853 25.19 -4.2 24.5 65 -9.8 14.3
05:10 1023 30.21 853 25.19 -4.2 24.5 65 -9.9 14.3
05:15 1024 30.24 853 25.19 -4.1 24.6 64 -10 14
05:20 1024 30.24 853 25.19 -4 24.7 64 -10 14.1
05:25 1024 30.24 853 25.19 -4 24.9 63 -10.1 13.9
05:30 1024 30.24 853 25.19 -3.9 24.9 63 -10 14
05:35 1024 30.24 853 25.19 -4 24.9 63 -9.9 14.1
05:40 1024 30.24 853 25.19 -4 24.8 63 -10.1 13.8
05:45 1024 30.24 853 25.19 -3.9 24.9 63 -10.1 13.9
05:50 1023 30.21 853 25.19 -3.9 24.9 62 -10.1 13.8
05:55 1023 30.21 853 25.19 -4 24.7 62 -10.2 13.6
06:00 1023 30.21 853 25.19 -4.1 24.5 62 -10.4 13.3
06:05 1023 30.21 853 25.19 -4.2 24.5 62 -10.3 13.4
06:10 1023 30.21 853 25.19 -4.3 24.3 62 -10.6 12.9
06:15 1023 30.21 853 25.19 -4.2 24.4 62 -10.5 13.1
06:20 1023 30.21 853 25.19 -4.4 24.1 63 -10.4 13.2
06:25 1023 30.21 853 25.19 -4.5 23.9 63 -10.5 13.2
06:30 1023 30.21 853 25.19 -4.6 23.7 64 -10.5 13.1
06:35 1023 30.21 853 25.19 -4.6 23.7 64 -10.4 13.2
06:40 1023 30.21 853 25.19 -4.8 23.3 65 -10.5 13
06:45 1023 30.21 853 25.19 -5 23 66 -10.5 13.1
06:50 1023 30.21 853 25.19 -5.2 22.6 67 -10.5 13.1
06:55 1023 30.21 853 25.19 -5.5 22.1 68 -10.5 13.1
07:00 1023 30.21 853 25.19 -5.7 21.7 69 -10.6 13
07:05 1023 30.21 852 25.16 -5.3 22.4 66 -10.7 12.7
07:10 1023 30.21 853 25.19 -5.1 22.9 64 -10.8 12.5
07:15 1023 30.21 853 25.19 -4.7 23.6 62 -10.8 12.6
07:20 1023 30.21 853 25.19 -4.5 23.8 62 -10.8 12.6
07:25 1023 30.21 852 25.16 -4.6 23.7 63 -10.6 12.9
07:30 1023 30.21 853 25.19 -4.8 23.4 62 -10.9 12.3
07:35 1023 30.21 853 25.19 -4.8 23.3 63 -10.8 12.5
07:40 1023 30.21 853 25.19 -5 23 63 -11.1 12.1
07:45 1023 30.21 853 25.19 -5.1 22.9 62 -11.2 11.8
07:50 1024 30.24 853 25.19 -5 23 62 -11.2 11.9
07:55 1024 30.24 853 25.19 -5 22.9 62 -11.2 11.9
08:00 1024 30.24 853 25.19 -5.1 22.8 62 -11.2 11.8
08:05 1024 30.24 853 25.19 -5.2 22.6 63 -11.1 12
08:10 1024 30.24 853 25.19 -5.4 22.3 63 -11.4 11.5
08:15 1024 30.24 853 25.19 -5.3 22.4 61 -11.7 11
08:20 1024 30.24 853 25.19 -5.1 22.9 60 -11.7 11
08:25 1024 30.24 853 25.19 -5.1 22.8 60 -11.7 11
08:30 1024 30.24 853 25.19 -5.7 21.8 62 -11.9 10.5
08:35 1024 30.24 853 25.19 -6 21.1 62 -12.2 10.1
08:40 1024 30.24 853 25.19 -6.1 21 63 -12.1 10.1
08:45 1024 30.24 853 25.19 -6.1 21.1 62 -12.2 10.1
08:50 1024 30.24 853 25.19 -5.6 22 60 -12.2 10
08:55 1024 30.24 853 25.19 -5 22.9 59 -12 10.5
09:00 1024 30.24 853 25.19 -4.6 23.7 56 -12.1 10.3
09:05 1024 30.24 853 25.19 -4.4 24 56 -12 10.4
09:10 1024 30.24 853 25.19 -4.5 23.8 55 -12.3 9.9
09:15 1024 30.24 853 25.19 -4.8 23.4 56 -12.2 10
09:20 1024 30.24 853 25.19 -4.9 23.1 56 -12.3 9.8
09:25 1024 30.24 853 25.19 -5.3 22.5 58 -12.3 9.9
09:30 1024 30.24 853 25.19 -5.6 21.9 59 -12.4 9.7
09:35 1024 30.24 853 25.19 -4.8 23.4 57 -12.1 10.2
09:40 1024 30.24 853 25.19 -4.4 24.1 55 -12.1 10.2
09:45 1024 30.24 853 25.19 -4 24.8 55 -11.7 10.9
09:50 1024 30.24 853 25.19 -4.9 23.1 58 -11.9 10.6
09:55 1024 30.24 853 25.19 -5.1 22.8 59 -12 10.4
10:00 1024 30.24 853 25.19 -4.8 23.3 60 -11.5 11.3
10:05 1024 30.24 853 25.19 -4.1 24.6 56 -11.6 11.1
10:10 1024 30.24 853 25.19 -4.1 24.6 57 -11.4 11.4
10:15 1024 30.24 853 25.19 -3.8 25.2 56 -11.3 11.6
10:20 1024 30.24 853 25.19 -3.6 25.5 55 -11.4 11.4
10:25 1024 30.24 854 25.22 -3.1 26.4 54 -11.2 11.9
10:30 1024 30.24 854 25.22 -3.1 26.4 54 -11.1 12
10:35 1024 30.24 854 25.22 -3.4 25.8 55 -11.3 11.6
10:40 1024 30.24 853 25.19 -3.2 26.2 53 -11.4 11.4
10:45 1024 30.24 853 25.19 -3.2 26.2 51 -11.9 10.6
10:50 1024 30.24 853 25.19 -2.6 27.3 49 -11.9 10.5
10:55 1024 30.24 853 25.19 -1.9 28.6 47 -11.8 10.8
11:00 1024 30.24 853 25.19 -1.7 29 46 -11.9 10.5
11:05 1024 30.24 853 25.19 -1.4 29.5 46 -11.6 11.2
11:10 1024 30.24 853 25.19 -1.6 29.1 46 -11.7 11
11:15 1024 30.24 853 25.19 -1.6 29.1 45 -11.9 10.5
11:20 1024 30.24 853 25.19 -1.3 29.7 45 -11.9 10.6
11:25 1024 30.24 853 25.19 -1.1 30.1 44 -11.9 10.6
11:30 1024 30.24 853 25.19 -0.6 30.9 43 -11.6 11.1
11:35 1024 30.24 853 25.19 -0.3 31.5 42 -11.8 10.8
11:40 1024 30.24 853 25.19 0.1 32.2 42 -11.2 11.8
11:45 1024 30.24 853 25.19 0.2 32.3 43 -10.9 12.4
11:50 1024 30.24 853 25.19 -0.4 31.3 45 -11.1 12.1
11:55 1024 30.24 853 25.19 -0.5 31.1 45 -11.2 11.9
12:00 1024 30.24 853 25.19 -0.7 30.7 46 -11.1 12
12:05 1023 30.21 853 25.19 -0 31.9 42 -11.4 11.5
12:10 1023 30.21 853 25.19 0.8 33.4 40 -11.2 11.8
12:15 1023 30.21 853 25.19 -0.9 30.3 49 -10.4 13.3
12:20 1023 30.21 852 25.16 -0.1 31.9 42 -11.6 11.1
12:25 1023 30.21 852 25.16 0.6 33.1 42 -10.8 12.5
12:30 1023 30.21 852 25.16 1.2 34.1 41 -10.8 12.5
12:35 1023 30.21 852 25.16 1.1 33.9 39 -11.3 11.6
12:40 1023 30.21 852 25.16 -0.1 31.8 40 -12 10.4
12:45 1023 30.21 852 25.16 0.1 32.2 43 -11.2 11.9
12:50 1023 30.21 852 25.16 0.3 32.6 41 -11.5 11.3
12:55 1023 30.21 852 25.16 -0.1 31.9 43 -11.2 11.8
13:00 1023 30.21 852 25.16 -0.2 31.6 41 -11.8 10.7
13:05 1023 30.21 852 25.16 -0.2 31.6 43 -11.5 11.4
13:10 1023 30.21 852 25.16 -0.1 31.9 43 -11.1 12.1
13:15 1023 30.21 852 25.16 0.3 32.5 42 -11.1 12
13:20 1022 30.18 852 25.16 1.1 33.9 39 -11.3 11.7
13:25 1022 30.18 851 25.13 0.3 32.6 41 -11.6 11.2
13:30 1022 30.18 851 25.13 -0.4 31.2 43 -11.4 11.5
13:35 1022 30.18 851 25.13 0.7 33.2 38 -12.2 10.1
13:40 1022 30.18 851 25.13 1.6 34.9 37 -11.7 11
13:45 1022 30.18 851 25.13 1.4 34.6 38 -11.3 11.6
13:50 1022 30.18 851 25.13 2.2 36 36 -11.5 11.3
13:55 1022 30.18 851 25.13 2.5 36.5 34 -11.9 10.5
14:00 1022 30.18 851 25.13 2.6 36.6 35 -11.5 11.3
14:05 1022 30.18 851 25.13 2.5 36.5 37 -10.8 12.5
14:10 1022 30.18 851 25.13 1.7 35.1 36 -11.8 10.8
14:15 1021 30.15 851 25.13 1.4 34.6 39 -11 12.3
14:20 1021 30.15 851 25.13 1.1 34 35 -12.9 8.8
14:25 1021 30.15 850 25.1 0.4 32.8 39 -12.1 10.3
14:30 1021 30.15 850 25.1 -0.2 31.6 39 -12.4 9.6
14:35 1021 30.15 850 25.1 -0.1 31.9 40 -12.3 9.9
14:40 1021 30.15 850 25.1 0.5 32.9 36 -12.9 8.8
14:45 1021 30.15 850 25.1 1.1 33.9 39 -11.6 11.2
14:50 1021 30.15 850 25.1 1.1 34 41 -10.8 12.5
14:55 1021 30.15 850 25.1 0.9 33.6 39 -11.7 11
15:00 1021 30.15 850 25.1 1.2 34.1 38 -11.7 10.9
15:05 1021 30.15 850 25.1 1 33.8 37 -12 10.3
15:10 1021 30.15 851 25.13 1.2 34.2 40 -10.9 12.4
15:15 1021 30.15 851 25.13 0.8 33.4 43 -10.4 13.4
15:20 1021 30.15 851 25.13 0.6 33 43 -10.7 12.8
15:25 1021 30.15 850 25.1 0.7 33.3 41 -11.1 12
15:30 1021 30.15 850 25.1 1.1 34 42 -10.5 13
15:35 1021 30.15 850 25.1 0.9 33.5 42 -10.6 13
15:40 1021 30.15 850 25.1 0.4 32.7 43 -10.7 12.7
15:45 1021 30.15 850 25.1 0.2 32.4 43 -10.9 12.3
15:50 1021 30.15 850 25.1 0.2 32.3 43 -10.9 12.3
15:55 1021 30.15 850 25.1 -0.1 31.9 44 -10.9 12.4
16:00 1021 30.15 850 25.1 -0.3 31.5 45 -10.9 12.4
16:05 1021 30.15 850 25.1 -0.3 31.4 45 -10.8 12.5
16:10 1021 30.15 850 25.1 -0.5 31.1 46 -10.6 12.9
16:15 1021 30.15 850 25.1 -1 30.2 48 -10.6 13
16:20 1021 30.15 850 25.1 -1.1 30 49 -10.6 12.9
16:25 1021 30.15 850 25.1 -1.3 29.6 50 -10.5 13.1
16:30 1021 30.15 850 25.1 -1.1 30.1 49 -10.4 13.3
16:35 1021 30.15 850 25.1 -1.3 29.7 50 -10.4 13.2
16:40 1021 30.15 850 25.1 -1.2 29.9 49 -10.5 13.1
16:45 1021 30.15 850 25.1 -1.3 29.6 49 -10.7 12.7
16:50 1021 30.15 850 25.1 -1.5 29.3 49 -10.8 12.6
16:55 1021 30.15 850 25.1 -1.4 29.5 50 -10.5 13.1
17:00 1021 30.15 850 25.1 -1.4 29.5 51 -10.3 13.5
17:05 1020 30.12 850 25.1 -1.9 28.5 51 -10.7 12.8
17:10 1020 30.12 850 25.1 -2.3 27.8 53 -10.6 12.9
17:15 1020 30.12 850 25.1 -2.4 27.6 56 -10 13.9
17:20 1020 30.12 849 25.07 -2.6 27.3 54 -10.8 12.6
17:25 1020 30.12 849 25.07 -2.7 27.1 53 -11.1 12
17:30 1020 30.12 849 25.07 -2.7 27.1 52 -11.2 11.8
17:35 1020 30.12 849 25.07 -2.9 26.9 55 -10.7 12.8
17:40 1020 30.12 849 25.07 -3 26.6 54 -10.9 12.3
17:45 1020 30.12 849 25.07 -3.2 26.3 56 -10.7 12.8
17:50 1020 30.12 849 25.07 -3.2 26.2 57 -10.5 13.1
17:55 1020 30.12 849 25.07 -3.2 26.2 58 -10.3 13.5
18:00 1020 30.12 849 25.07 -3.2 26.2 61 -9.8 14.4
18:05 1020 30.12 849 25.07 -3.4 25.8 61 -9.9 14.2
18:10 1020 30.12 849 25.07 -3.7 25.3 61 -10.2 13.7
18:15 1020 30.12 849 25.07 -4 24.9 60 -10.6 13
18:20 1020 30.12 849 25.07 -4 24.7 61 -10.6 13
18:25 1020 30.12 849 25.07 -4 24.8 61 -10.4 13.3
18:30 1020 30.12 849 25.07 -3.8 25.1 59 -10.6 12.9
18:35 1020 30.12 849 25.07 -3.6 25.5 62 -9.9 14.1
18:40 1020 30.12 849 25.07 -3.7 25.4 62 -9.8 14.3
18:45 1020 30.12 849 25.07 -4 24.8 62 -10.2 13.7
18:50 1020 30.12 849 25.07 -4 24.8 62 -10.2 13.7
18:55 1020 30.12 849 25.07 -4.1 24.7 62 -10.3 13.5
19:00 1020 30.12 849 25.07 -4.1 24.6 63 -10.2 13.6
19:05 1020 30.12 849 25.07 -4 24.8 61 -10.4 13.3
19:10 1020 30.12 849 25.07 -3.9 25 61 -10.3 13.5
19:15 1020 30.12 849 25.07 -3.7 25.3 59 -10.5 13
19:20 1020 30.12 849 25.07 -3.7 25.4 60 -10.3 13.4
19:25 1020 30.12 849 25.07 -3.8 25.2 59 -10.6 12.9
19:30 1020 30.12 849 25.07 -3.5 25.7 57 -10.8 12.5
19:35 1020 30.12 849 25.07 -3.4 25.9 57 -10.7 12.8
19:40 1020 30.12 849 25.07 -3.5 25.6 59 -10.5 13.1
19:45 1020 30.12 849 25.07 -3.8 25.2 60 -10.4 13.2
19:50 1019 30.09 849 25.07 -3.9 24.9 61 -10.5 13.2
19:55 1019 30.09 849 25.07 -4.1 24.6 61 -10.5 13.1
20:00 1019 30.09 849 25.07 -4.3 24.3 62 -10.6 13
20:05 1019 30.09 849 25.07 -4.2 24.4 62 -10.5 13.1
20:10 1019 30.09 849 25.07 -4.2 24.4 63 -10.4 13.4
20:15 1019 30.09 849 25.07 -4.5 23.9 63 -10.5 13.1
20:20 1019 30.09 849 25.07 -4.4 24.1 62 -10.6 13
20:25 1019 30.09 849 25.07 -4.4 24.1 62 -10.6 12.9
20:30 1019 30.09 849 25.07 -4.5 23.9 62 -10.8 12.5
20:35 1019 30.09 848 25.04 -4.6 23.7 61 -11 12.3
20:40 1019 30.09 848 25.04 -4.8 23.4 66 -10.2 13.6
20:45 1019 30.09 848 25.04 -5.1 22.8 68 -10.1 13.8
20:50 1019 30.09 848 25.04 -4.6 23.8 65 -10.1 13.8
20:55 1019 30.09 848 25.04 -5.4 22.4 68 -10.3 13.4
21:00 1019 30.09 848 25.04 -5.3 22.5 63 -11.4 11.6
21:05 1019 30.09 848 25.04 -4.5 24 61 -10.8 12.5
21:10 1019 30.09 848 25.04 -4.7 23.6 62 -10.9 12.3
21:15 1019 30.09 848 25.04 -5.2 22.7 64 -10.9 12.4
21:20 1019 30.09 848 25.04 -5.6 22 65 -11.1 11.9
21:25 1019 30.09 848 25.04 -5.5 22.1 65 -11.2 11.9
21:30 1019 30.09 848 25.04 -5.3 22.4 66 -10.8 12.6
21:35 1019 30.09 848 25.04 -5.5 22 67 -10.7 12.8
21:40 1019 30.09 848 25.04 -5.4 22.3 66 -10.7 12.7
21:45 1018 30.06 848 25.04 -5.1 22.8 66 -10.6 12.9
21:50 1018 30.06 848 25.04 -5.1 22.8 65 -10.6 12.8
21:55 1018 30.06 847 25.01 -5 23 65 -10.6 12.9
22:00 1018 30.06 847 25.01 -4.9 23.2 64 -10.6 12.9
22:05 1018 30.06 847 25.01 -4.7 23.6 63 -10.7 12.8
22:10 1018 30.06 848 25.04 -4.7 23.6 63 -10.7 12.7
22:15 1018 30.06 848 25.04 -4.5 23.8 62 -10.8 12.5
22:20 1018 30.06 848 25.04 -4.4 24.1 62 -10.7 12.7
22:25 1018 30.06 848 25.04 -4.4 24 62 -10.7 12.7
22:30 1018 30.06 847 25.01 -4.5 23.8 62 -10.7 12.8
22:35 1018 30.06 847 25.01 -4.5 23.8 62 -10.7 12.7
22:40 1018 30.06 847 25.01 -4.3 24.2 60 -10.9 12.3
22:45 1018 30.06 847 25.01 -4.2 24.4 60 -10.8 12.5
22:50 1018 30.06 847 25.01 -4.4 24.1 61 -10.8 12.5
22:55 1018 30.06 847 25.01 -4.6 23.8 62 -10.9 12.4
23:00 1018 30.06 847 25.01 -4.7 23.5 61 -11.2 11.9
23:05 1018 30.06 847 25.01 -4.4 24.1 60 -11 12.2
23:10 1018 30.06 847 25.01 -4.3 24.3 61 -10.8 12.6
23:15 1018 30.06 847 25.01 -4.5 23.9 61 -10.9 12.3
23:20 1018 30.06 847 25.01 -4.7 23.6 62 -10.8 12.6
23:25 1018 30.06 847 25.01 -4.7 23.6 61 -11 12.2
23:30 1018 30.06 847 25.01 -4.5 23.9 61 -11 12.3
23:35 1018 30.06 847 25.01 -4.5 24 61 -10.9 12.4
23:40 1018 30.06 847 25.01 -4.3 24.2 60 -10.9 12.4
23:45 1018 30.06 847 25.01 -4.3 24.2 60 -11 12.3
23:50 1018 30.06 847 25.01 -4.2 24.5 60 -10.9 12.4
23:55 1018 30.06 847 25.01 -4.3 24.3 61 -10.7 12.7
24:00 1018 30.06 847 25.01 -4.6 23.7 62 -10.7 12.7